Hourly Data Report for September 05, 2017

All times are specified in Local Standard Time (LST). Add 1 hour to adjust for Daylight Saving Time where and when it is observed.

QUEBEC/JEAN LESAGE INTL
QUEBEC

46°48'13.000" N
71°22'54.000" W
60.00 m
701S001
71714
WQB

Download Data

Hourly Data (September 2017)
Hourly Data Report for September 5, 2017
Temp Definition
°C
Dew Point Temp Definition
°C
Rel Hum Definition
%
Wind Dir Definition
10's deg

Wind Spd Definition
km/h
Visibility Definition
km
Stn Press Definition
kPa
Hmdx Definition


Wind Chill Definition


Weather Definition


TIME
00:00 16.1 15.6 97 9 4   99.30     LegendNANA
01:00 16.3 16.0 98 2 3   99.20     LegendNANA
02:00 16.7 15.9 95 21 2   99.14     LegendNANA
03:00 16.5 16.1 98 8 2   99.09     LegendNANA
04:00 18.1 16.6 91 24 10   99.10     LegendNANA
05:00 17.9 16.9 94 23 13   99.22     LegendNANA
06:00 17.9 17.1 95 23 11   99.30     LegendNANA
07:00 17.9 17.0 95 24 11   99.39     LegendNANA
08:00 18.1 15.7 86 26 14   99.49     LegendNANA
09:00 18.8 15.7 82 26 12   99.60     LegendNANA
10:00 20.3 15.1 72 28 14   99.64     LegendNANA
11:00 20.9 14.6 67 25 14   99.66 25   LegendNANA
12:00 20.3 15.0 72 21 9   99.70     LegendNANA
13:00 20.4 14.0 67 26 10   99.76     LegendNANA
14:00 19.3 14.7 75 25 7   99.81     LegendNANA
15:00 19.4 14.8 75 29 4   99.80     LegendNANA
16:00 18.7 14.4 76 22 4   99.83     LegendNANA
17:00 18.6 15.0 80 21 4   99.86     LegendNANA
18:00 17.6 15.4 87 24 4   99.89     LegendNANA
19:00 17.2 15.7 91 24 4   99.97     LegendNANA
20:00 15.8 15.2 97 32 5   99.98     LegendNANA
21:00 16.5 15.5 94 24 6   100.07     LegendNANA
22:00 15.8 15.0 95 24 5   100.06     LegendNANA
23:00 16.1 15.4 96 24 6   100.13     LegendNANA

Notes on Data Quality.

Legend

  • E = Estimated
  • M = Missing
  • NA = Not Available
  • ‡ = Partner data that is not subject to review by the National Climate Archives
Date modified: